978  
ASUS46 KLOX 130113  
RWRCA  
 
SOUTHERN CALIFORNIA WEATHER ROUNDUP  
NATIONAL WEATHER SERVICE OXNARD CALIFORNIA  
600 PM PDT MON APR 12 2021  
 
NOTE: "FAIR" INDICATES FEW OR NO CLOUDS BELOW 12,000 FEET WITH NO  
SIGNIFICANT WEATHER AND/OR S TO VISIBILITY
.  
 
- STATIONS PRECEEDED BY AN ASTERISK (*) ARE NOT NWS OR FAA  
STATIONS AND ARE NOT SUBJECT TO NWS AND FAA QUALITY CONTROL.
 
 
CAZ041-042-087-130200-  
LA AND ORANGE COUNTY COASTAL AREAS  
 
 
CITY SKY/WX TMP DP RH WIND PRES REMARKS
 
L.A. DOWNTOWN CLOUDY 63 51 65 W6 29.83R  
L.A. AIRPORT MOSUNNY 61 52 72 W15 29.84R  
LONG BEACH CLOUDY 63 50 62 SW8 29.83S  
 
CITY SKY/WX TMP DP RH WIND PRES REMARKS
 
AVALON N/A 61 N/A N/A MISG N/A  
FULLERTON MOSUNNY 65 53 65 SW9 29.82S  
HAWTHORNE CLOUDY 62 50 64 W13 29.85R  
*LEO CARRILLO N/A 59 51 75 W7 N/A  
*LOS ALAMITOS MOSUNNY 63 54 73 S10 29.84R  
SANTA ANA MOSUNNY 64 50 60 S10 29.83S  
STA MONICA APT MOSUNNY 60 50 69 W8 29.84R  
*UCLA N/A 59 50 72 SW7 29.80R  
 

 
 
CAZ547-548-048-130200-  
LA COUNTY VALLEYS AND INLAND EMPIRE  
 
 
CITY SKY/WX TMP DP RH WIND PRES REMARKS
 
BURBANK MOSUNNY 63 49 60 S10 29.82R  
VAN NUYS MOSUNNY 65 49 56 SE9 29.81R  
 
CITY SKY/WX TMP DP RH WIND PRES REMARKS
 
CORONA AIRPORT PTCLDY 66 52 60 W13 29.81  
*CHATSWORTH N/A 66 51 59 E8 29.80R  
CHINO MOSUNNY 66 50 56 SW14 29.81F  
*CLAREMONT N/A 64 51 62 SW6 N/A  
MARCH AFB MOSUNNY 68 51 53 NW12 29.80S  
*NORTHRIDGE N/A 64 48 55 E3G10 N/A  
ONTARIO PTSUNNY 67 50 54 W10 29.81R  
*PASADENA N/A 64 55 72 CALM N/A  
POMONA SUNNY 64 52 63 SW8 29.82S  
RIVERSIDE MOSUNNY 67 50 54 W14 29.80S  
SAN BERNARDINO PTSUNNY 73 46 38 SW8 29.80S  
*SAN GABRIEL N/A 64 53 65 SW12 29.88R  
*SAN RAFAEL HI N/A 60 52 73 SW7 N/A  
*SAUGUS N/A 64 50 61 S18 N/A  
*WHITEMAN AP SUNNY 63 50 63 CALM 29.86R  
*WHITTIER HILL N/A 61 51 69 S7 N/A  
*WOODLAND HILL N/A 66 48 52 MISG N/A  
 

 
 
CAZ054-055-130200-  
LA AND SAN BERNARDINO COUNTY MOUNTAINS  
 
 
CITY SKY/WX TMP DP RH WIND PRES REMARKS
 
*ACTON N/A 69 47 44 SW7 N/A  
*BIG BEAR AIRP CLEAR 57 -2 9 W9 29.96S  
*BIG PINES N/A 55 11 17 W2 N/A  
*CHILAO N/A 59 46 63 SW5 N/A  
SANDBERG PTSUNNY 64 32 30 NW18G28 29.89R  
*WARM SPRINGS N/A 66 45 46 SW3 N/A  
 

 
 
CAZ028-029-059-060-099-130200-  
ANTELOPE VALLEY AND SURROUNDING AREAS  
 
 
CITY SKY/WX TMP DP RH WIND PRES REMARKS
 
LANCASTER MOSUNNY 76 30 18 W30 29.76R  
PALMDALE MOSUNNY 72 43 35 W21 29.77R  
*POPPY PARK N/A 74 30 20 W16G28 N/A  
 
CITY SKY/WX TMP DP RH WIND PRES REMARKS
 
29 PALMS SUNNY 83 24 11 SW25 29.73S  
BARSTOW/DAGGET SUNNY 87 19 8 W20G26 29.66R  
BISHOP MOSUNNY 75 16 10 MISG 29.75S  
CHINA LAKE PTSUNNY 83 20 9 W18G25 29.67R  
EDWARDS AFB MOSUNNY 78 30 17 W18 29.71R  
MOJAVE SUNNY 75 34 22 W23G32 29.75S  
NEEDLES SUNNY 93 10 4 SW14 29.60S  
VICTORVILLE SUNNY N/A N/A N/A S16G28 29.76R  
 

 
 
CAZ039-040-130200-  
VENTURA AND SANTA BARBARA COUNTY COAST  
 
 
CITY SKY/WX TMP DP RH WIND PRES REMARKS
 
CAMARILLO PTSUNNY 61 49 64 W12 29.84R  
NWS OXNARD N/A 59 45 59 W10 29.82R  
OXNARD AIRPORT CLOUDY 57 49 74 W13 29.84R  
*POINT MUGU MOSUNNY 58 49 72 W12 29.85R  
SBA APT/GOLETA SUNNY 60 49 66 VRB5 29.81F  
*SANTA BARBARA N/A 63 48 57 CALM 29.88F  
*VENTURA N/A 55 50 82 SW9G15 N/A  
 

 
 
CAZ044-045-130200-  
VENTURA COUNTY VALLEYS  
 
 
CITY SKY/WX TMP DP RH WIND PRES REMARKS
 
*SIMI VALLEY N/A 62 51 66 W3 29.78R  
*N 1000 OAKS N/A 59 50 73 NW3 29.83S  
*TO CIVIC ARTS N/A 61 50 67 MISG N/A  
*WESTLAKE VILL N/A 60 49 66 CALM 29.79S  
*OJAI N/A 64 51 64 W3 29.76S  
*FILLMORE N/A 62 52 69 SW3 29.86R  
 

 
 
CAZ053-130200-  
VENTURA COUNTY MOUNTAINS  
 
 
CITY SKY/WX TMP DP RH WIND PRES REMARKS
 
*LOCKWOOD VLY N/A 63 23 22 MISG N/A  
 

 
 
CAZ034-035-036-130200-  
CENTRAL COAST AND SANTA YNEZ VALLEY  
 
 
CITY SKY/WX TMP DP RH WIND PRES REMARKS
 
SAN LUIS OBISP MOSUNNY 54 47 77 NW17 29.86R  
SANTA MARIA CLOUDY 52 46 80 W14 29.88R HAZE  
 
CITY SKY/WX TMP DP RH WIND PRES REMARKS
 
*CAL POLY SLO N/A 55 50 82 SW6 N/A  
*LOMPOC N/A 52 47 83 NW7 29.88S  
*PISMO BEACH N/A 56 43 62 W5 29.85S  
*SANTA YNEZ FAIR 55 46 71 W13 29.85R HAZE  
 

 
 
CAZ037-038-051-130200-  
SAN LUIS OBISPO COUNTY INTERIOR AND CUYAMA VALLEY  
 
 
CITY SKY/WX TMP DP RH WIND PRES REMARKS
 
*CUYAMA N/A 74 42 30 NW7 29.71R  
PASO ROBLES MOSUNNY 67 47 48 S16 29.78R  
 

 
 
CAZ032-033-061-130200-  
SOUTHERN DESERTS  
 
 
CITY SKY/WX TMP DP RH WIND PRES REMARKS
 
BLYTHE SUNNY 91 34 13 S14 29.61S  
IMPERIAL SUNNY 92 42 17 S7 29.59F  
PALM SPRINGS SUNNY 86 48 26 NW17 29.65R  
THERMAL SUNNY 89 43 20 E3 29.60S  
 

 
 
ELSEWHERE ACROSS THE WESTERN UNITED STATES AND MEXICO  
 
 
CITY SKY/WX TMP DP RH WIND PRES REMARKS
 
DEATH VALLEY, N/A 97 10 4 CALM N/A HX 90  
DENVER, CO CLOUDY 40 16 37 N12 30.13R WCI 33  
GRAND CANYON, MOSUNNY 66 12 12 SW8 29.89R  
HONOLULU, HI MOSUNNY 82 55 39 N9 29.90F  
KAHULUI, MAUI MOSUNNY 79 64 61 NE14 29.90F  
LAKE TAHOE, CA MOSUNNY 57 27 31 S3 29.91F  
LAS VEGAS, NV MOSUNNY 84 13 7 E13 29.67S  
MAMMOTH LAKES, FAIR 59 18 20 SW8 29.92S  
MEXICO CITY, M MOCLDY 73 39 29 SE8 30.16R  
PHOENIX, AZ SUNNY 90 28 11 W14 29.64S  
PORTLAND, OR MOSUNNY 64 21 19 E25 30.11F  
RENO, NV MOSUNNY 63 9 12 VRB5 29.87F  
SALT LAKE CITY PTSUNNY 53 10 18 W10 29.97S  
SAN DIEGO, CA PTSUNNY 63 51 65 VRB6 29.87S  
SAN FRANCISCO, PTSUNNY 62 46 55 NW17 29.82S  
SAN JOSE, CA PTSUNNY 67 48 50 NW14 29.81R  
SEATTLE, WA MOSUNNY 56 35 45 N23G30 30.23R  
TIJUANA, MEX MOSUNNY 63 52 67 S6 29.87S  
 

 
 
STATION/POSITION TIME TEMP WIND PRES VSBY WAVE
 
AIR SEA DIR/SP/G HT/PER  
(UTC) (F) (DEG/KT/KT) (MB) (MI) (FT/S)  
WEST SANTA BARBA 0100 310/ 21/ 25 1011.3  
EAST SANTA BARBA 0100 54 54 280/ 14/ 16 1010.8  
SANTA MONICA BAY 0100 56 59 260/ 12/ 14 1010.9  
SAN CLEMENTE BAS 0100 57 61 290/ 10/ 14 1010.9  
 
CLICK HERE TO GO TO PREVIOUS BULLETINS.

The Nexlab CA Page Main Text Page